Location: Newark
(45.5000°N, 11.4167°E)
Time: 23:25:02
(UTC+00:00)

Explorer 11/Cluster Stage 4 - Pass Details

Date: 27 August 2019
Orbit: 467 x 1260 km, 28.8° (Epoch: 19 September)

Event Time Altitude Azimuth Distance (km) Brightness Sun altitude
Rises 10:39:57 0° 247° (WSW) 4,078 10.3 53.7°
Reaches altitude 10° 10:43:27 10° 233° (SW) 3,181 10.0 53.9°
Maximum altitude 10:49:22 23° 186° (S) 2,414 10.2 54.1°
Drops below altitude 10° 10:55:19 10° 139° (SE) 3,197 10.3 54.3°
Sets 10:58:51 0° 126° (SE) 4,104 10.6 54.4°
